Hourly Data Report for August 28, 2020

LYTTON RCS
BRITISH COLUMBIA
Current Station Operator: ECCC - MSC

50°13'28.000" N
121°34'55.000" W
225.00 m
1114746
71765
VLY

Download Data

Hourly Data (August 2020)
Hourly Data Report for August 28, 2020
TIME Temp Definition
°C
Dew Point Definition
°C
Rel Hum Definition
%
Wind Dir Definition
10's deg

Wind Spd Definition
km/h
Visibility Definition
km
Stn Press Definition
kPa
Hmdx Definition


Wind Chill Definition


Weather Definition


00:00 19.8 9.8 52 19 24   98.78     LegendNANA
01:00 19.1 9.8 55 18 30   98.80     LegendNANA
02:00 18.5 9.9 57 18 31   98.82     LegendNANA
03:00 18.0 9.9 59 18 31   98.82     LegendNANA
04:00 17.1 9.8 62 17 31   98.86     LegendNANA
05:00 16.3 9.6 65 15 14   98.92     LegendNANA
06:00 15.9 9.6 66 13 16   98.91     LegendNANA
07:00 15.6 9.5 67 15 18   98.90     LegendNANA
08:00 18.0 9.3 57 14 8   98.89     LegendNANA
09:00 21.1 9.0 46 17 17   98.78     LegendNANA
10:00 23.4 8.2 38 18 30   98.71     LegendNANA
11:00 25.6 7.3 31 18 39   98.57 26   LegendNANA
12:00 27.8 7.2 27 19 28   98.48 28   LegendNANA
13:00 29.1 5.9 23 19 27   98.40 29   LegendNANA
14:00 30.0 4.8 20 18 30   98.32 29   LegendNANA
15:00 30.8 4.1 18 18 30   98.26 30   LegendNANA
16:00 30.9 4.4 19 18 30   98.20 30   LegendNANA
17:00 29.3 6.0 23 19 29   98.21 29   LegendNANA
18:00 26.9 7.2 29 19 19   98.25 27   LegendNANA
19:00 25.2 7.4 32 21 17   98.30 25   LegendNANA
20:00 24.6 7.5 34 21 20   98.31 25   LegendNANA
21:00 23.3 7.2 36 20 24   98.34     LegendNANA
22:00 22.1 6.5 36 19 24   98.40     LegendNANA
23:00 21.2 6.4 38 19 29   98.37     LegendNANA

Notes on Data Quality.

Legend

  • E = Estimated
  • M = Missing
  • NA = Not Available*
  • [empty] = Indicates an unobserved value
Date modified: